Temp
56 56 55 55 54 52 56 60 56 72 72 60 66 62 66 60 72 78 75 74 73 75 79 76 79 79 84 91 91 81 88 84 76 78 89 93 91 86 86 77 72 80 79 80
56 56 55 54 53 52 60 55 58 75 69 55 61 65 61 66 67 71 72 72 75 78 75 70 78 81 84 86 88 83 87 79 72 75 83 86 83 88 89 87 86 76 73 78
56 56 56 55 54 54 57 55 53 63 65 64 56 55 55 59 69 68 72 72 76 74 71 76 73 76 80 84 88 75 83 82 75 73 76 83 77 83 87 85 78 78 81 82
56 56 56 55 55 54 57 58 56 54 54 53 53 54 55 54 57 67 68 67 69 70 66 70 71 78 78 82 73 82 86 73 79 81 85 86 84 82 83 80 82 78 83 84
56 56 56 55 54 54 56 52 53 58 54 54 52 50 54 52 55 56 61 61 61 63 66 70 70 75 77 77 82 81 84 72 78 76 82 83 80 83 85 84 84 85 86 85
56 56 56 55 54 52 53 63 60 53 50 52 51 54 53 52 54 59 60 57 57 61 66 67 70 74 77 77 74 76 76 75 71 68 79 79 72 80 83 84 87 86 80 87
56 56 56 55 54 52 53 56 53 45 45 51 52 51 53 52 54 52 58 59 56 65 70 70 72 74 75 76 76 79 71 70 74 71 74 62 81 91 89 85 87 89 88 89
56 56 56 56 54 54 54 54 47 41 41 49 48 52 52 54 56 54 56 60 65 69 64 61 61 64 66 70 75 76 77 72 70 67 69 74 80 83 85 82 81 90 89 90
56 56 56 56 55 54 54 53 54 45 38 45 52 49 50 49 52 54 58 63 66 65 61 61 53 54 61 61 67 77 77 73 69 68 63 61 77 88 93 92 75 92 92 90
55 55 56 56 56 54 53 53 57 47 39 42 51 48 48 56 51 52 57 55 57 65 57 56 57 59 68 60 61 64 67 66 62 64 64 72 85 91 93 72 78 94 95 94
54 53 55 55 55 55 53 56 58 51 45 52 55 56 52 55 55 47 56 54 56 57 50 52 60 61 67 65 68 67 65 62 63 65 62 59 86 84 78 86 93 90 91 93
54 54 55 55 54 54 54 49 58 56 47 53 61 61 62 61 60 54 53 54 51 53 49 48 53 58 66 64 60 74 65 70 70 71 70 82 88 85 91 84 85 87 85 88
54 54 55 54 54 54 53 53 56 52 48 53 56 55 63 67 65 66 51 56 59 53 52 47 49 52 63 57 62 69 74 79 75 74 79 83 85 89 85 85 85 86 87 87
54 54 54 54 53 53 52 50 54 51 49 41 52 67 61 67 68 65 63 60 62 54 47 40 42 45 59 62 65 66 76 76 72 73 81 83 84 83 86 83 84 85 87 86
54 54 54 53 53 53 56 58 61 61 50 44 50 60 64 66 65 62 62 60 57 54 40 39 40 48 53 62 64 64 74 71 71 72 82 78 83 83 84 81 82 84 83 82
54 53 53 53 53 52 57 49 60 63 59 41 38 61 59 61 59 60 59 60 56 55 46 43 51 52 48 46 52 70 78 78 77 75 76 84 84 82 84 82 83 84 84 84
53 53 53 52 52 57 51 46 49 55 54 38 36 44 53 57 58 59 57 56 51 48 45 44 45 49 49 46 49 68 73 74 74 77 76 76 79 78 83 83 83 80 83 82
53 53 52 52 52 52 53 61 54 57 45 42 36 42 43 54 49 51 56 49 46 45 44 46 50 51 47 44 61 68 71 72 72 74 79 81 81 81 81 82 82 80 79 80
52 52 53 54 53 50 52 54 55 56 48 38 37 36 37 55 49 49 48 52 40 46 41 46 50 48 42 52 59 63 64 69 73 77 79 79 77 77 79 81 81 79 78 79
52 53 52 45 55 55 52 46 42 42 41 39 35 43 39 44 48 43 44 45 42 40 45 51 44 51 61 63 63 60 60 70 75 71 71 75 75 76 78 79 81 80 80 79
48 45 45 52 53 48 44 40 39 40 38 38 39 38 37 48 42 42 47 40 43 38 43 43 43 46 52 55 56 60 65 71 77 77 77 78 78 76 76 76 77 78 77 76
49 48 49 49 45 43 39 37 39 37 36 40 41 43 42 47 49 43 43 40 40 36 45 41 36 43 49 53 57 59 63 70 73 75 73 76 76 76 75 74 74 74 74 75
49 46 43 42 41 34 33 33 34 34 40 42 45 43 47 48 47 45 42 35 36 45 39 36 39 46 52 54 57 58 61 62 64 66 69 70 71 72 73 71 73 74 73 74
52 48 38 42 38 35 36 37 38 44 44 45 46 45 45 47 43 44 38 42 45 35 34 35 44 48 53 56 58 58 59 60 61 61 63 65 66 66 68 70 71 71 70 71
53 52 40 42 49 49 50 51 49 51 51 47 46 47 47 46 45 45 45 40 35 35 36 43 47 50 53 54 56 58 60 62 62 63 63 63 64 64 65 68 69 69 69 69
53 52 44 48 48 51 51 52 53 59 51 52 49 51 50 47 45 41 38 37 34 39 45 49 52 53 54 57 60 61 60 60 60 63 63 65 65 65 65 68 68 68 68 67
51 47 50 51 48 47 50 54 57 62 59 54 58 48 46 51 42 38 42 40 43 45 48 51 54 54 54 59 60 62 64 63 63 64 64 65 68 69 67 64 65 67 67 67
MSLP
1021.98 1021.56 1021.15 1020.75 1020.27 1019.61 1018.04 1016.46 1013.40 1013.17 1013.04 1011.52 1009.14 1007.30 1006.26 1005.83 1004.12 1003.21 1002.23 1001.40 1000.32 998.63 997.71 997.14 996.10 995.78 995.78 995.85 996.11 996.79 997.15 997.26 996.62 996.88 997.06 997.14 996.68 996.73 997.08 996.49 996.71 996.55 996.17 995.10
1021.63 1021.30 1020.93 1020.57 1020.24 1019.86 1018.47 1016.06 1014.10 1013.03 1012.76 1010.34 1008.45 1007.73 1007.58 1006.59 1005.22 1003.70 1002.61 1001.58 1000.93 999.93 999.06 998.31 996.94 996.55 996.79 996.87 996.12 996.28 996.96 996.78 996.42 996.45 996.80 997.21 996.40 996.04 996.27 996.60 996.57 995.59 995.86 995.38
1021.33 1020.95 1020.68 1020.38 1020.17 1019.88 1019.23 1016.69 1013.66 1012.09 1011.93 1011.57 1010.67 1009.37 1008.63 1007.01 1006.13 1005.00 1003.76 1002.46 1001.62 1000.85 1000.22 999.45 998.18 997.77 997.88 997.29 996.58 996.86 996.89 996.52 996.01 994.80 994.96 995.81 996.28 995.87 995.99 996.11 995.58 995.44 994.79 995.22
1021.01 1020.66 1020.32 1020.12 1019.98 1019.80 1019.28 1016.52 1014.24 1014.50 1012.02 1011.93 1011.96 1011.12 1009.71 1008.35 1007.17 1005.95 1005.22 1003.79 1002.90 1001.86 1001.01 1000.08 999.42 998.63 998.30 997.84 997.77 997.50 996.89 996.37 996.07 995.95 995.14 994.88 995.00 995.60 995.72 995.65 995.48 994.81 994.78 994.32
1020.76 1020.32 1020.04 1019.91 1019.72 1019.59 1018.70 1016.55 1015.34 1014.79 1013.95 1013.30 1012.50 1011.45 1009.98 1009.29 1008.64 1008.45 1005.99 1005.29 1005.03 1004.01 1002.04 1001.26 1000.34 999.82 998.89 997.92 998.23 997.66 997.34 996.85 996.56 996.11 995.92 995.42 995.00 994.92 994.73 994.84 994.91 994.70 994.49 993.93
1020.52 1020.15 1019.83 1019.60 1019.52 1019.55 1018.27 1016.72 1016.64 1016.31 1014.61 1013.37 1012.66 1011.22 1010.64 1010.48 1010.49 1008.95 1008.37 1008.03 1007.12 1005.15 1004.33 1004.18 1003.06 1001.94 1000.47 999.78 999.21 998.35 998.08 997.28 997.05 996.10 996.13 995.83 994.80 993.40 993.74 994.03 994.29 994.48 994.00 994.29
1020.23 1019.85 1019.52 1019.33 1019.20 1019.16 1018.66 1017.75 1017.62 1017.00 1014.92 1013.58 1012.70 1012.52 1012.14 1011.66 1010.94 1010.20 1009.63 1009.39 1008.28 1006.43 1006.55 1005.44 1003.70 1002.55 1001.26 1000.51 999.98 999.82 998.90 998.32 997.33 996.28 995.90 994.25 991.24 992.91 993.50 993.59 993.67 993.91 994.10 994.35
1019.76 1019.46 1019.16 1018.91 1018.83 1018.77 1018.52 1018.22 1018.42 1017.91 1016.19 1014.48 1013.84 1012.90 1012.28 1011.76 1011.12 1010.48 1009.75 1009.32 1008.85 1008.06 1007.09 1005.03 1002.86 1001.73 1001.00 999.61 999.58 999.48 999.70 999.07 997.48 996.26 994.66 993.67 992.45 992.80 992.54 992.75 992.77 993.18 993.43 993.96
1019.00 1018.75 1018.58 1018.42 1018.30 1018.32 1018.28 1017.88 1017.89 1017.94 1017.24 1015.14 1014.09 1013.42 1012.81 1011.94 1010.92 1010.08 1009.34 1009.41 1009.40 1008.66 1006.90 1004.35 1001.74 1000.08 999.60 998.87 998.75 999.08 999.31 999.69 998.58 996.93 994.84 992.64 993.02 992.45 992.80 992.63 991.62 992.56 992.79 993.07
1018.23 1017.92 1017.72 1017.67 1017.64 1017.70 1017.91 1017.34 1017.33 1017.47 1016.98 1016.06 1015.02 1013.66 1012.86 1012.15 1011.70 1010.61 1009.75 1009.76 1009.00 1008.02 1006.50 1004.23 1001.90 999.91 998.94 998.08 997.26 997.61 997.67 998.17 997.43 996.96 995.00 993.71 992.99 992.13 992.60 992.10 992.03 991.80 991.97 992.22
1017.44 1016.96 1016.85 1016.90 1016.89 1016.95 1017.36 1016.50 1016.61 1016.77 1016.00 1014.93 1014.18 1013.70 1013.09 1012.30 1011.80 1011.22 1009.97 1010.01 1009.23 1008.23 1007.21 1005.43 1002.47 1000.21 998.52 998.02 997.11 996.19 996.38 996.73 995.94 996.46 995.21 993.71 993.38 993.21 992.57 992.41 991.97 992.38 992.41 992.29
1016.82 1016.52 1016.17 1016.00 1016.14 1016.34 1016.72 1016.43 1015.79 1016.42 1016.17 1014.18 1013.38 1013.06 1012.60 1012.52 1012.20 1011.94 1011.52 1010.56 1010.34 1010.04 1008.96 1007.82 1005.40 1001.96 999.29 997.78 996.70 996.15 995.66 994.97 994.56 994.40 993.66 993.44 993.37 993.21 992.85 993.58 993.32 993.27 993.46 993.45
1016.50 1016.19 1015.76 1015.63 1015.38 1015.54 1015.96 1015.88 1015.60 1016.08 1015.28 1013.51 1012.07 1011.47 1011.50 1011.79 1011.81 1012.00 1011.76 1010.97 1010.85 1011.25 1011.76 1010.59 1008.37 1004.53 1001.59 998.92 997.54 996.00 995.46 994.72 994.16 993.96 993.35 993.26 993.58 993.40 993.94 994.10 993.98 993.94 994.01 994.16
1016.28 1016.02 1015.74 1015.58 1015.28 1015.40 1015.78 1015.83 1015.47 1015.51 1014.85 1013.33 1010.69 1010.04 1010.16 1010.43 1010.37 1010.70 1011.36 1011.43 1011.23 1012.16 1012.76 1012.10 1010.28 1007.42 1004.04 1000.70 998.68 997.36 995.30 994.85 994.24 993.68 993.16 993.26 993.53 993.96 993.94 994.27 994.47 994.47 994.72 994.97
1016.16 1015.91 1015.68 1015.61 1015.58 1015.56 1015.36 1014.84 1014.36 1014.35 1014.53 1012.98 1010.83 1010.07 1008.95 1008.92 1009.54 1009.86 1010.45 1010.85 1011.28 1011.49 1012.86 1012.54 1010.74 1008.70 1006.49 1003.24 1001.00 998.10 996.65 995.31 994.33 993.26 993.22 993.59 992.94 993.70 994.25 994.47 994.85 995.09 994.94 995.63
1015.89 1015.71 1015.56 1015.49 1015.42 1015.50 1014.60 1013.83 1013.20 1013.61 1013.93 1014.20 1011.93 1008.88 1008.40 1008.33 1008.69 1008.63 1009.47 1010.02 1010.72 1010.95 1011.72 1011.89 1010.67 1009.17 1008.00 1005.09 1001.20 998.21 996.37 995.89 996.02 994.85 994.92 993.76 993.62 994.22 994.58 994.76 995.42 995.87 996.38 996.20
1015.39 1015.28 1015.16 1015.02 1015.11 1014.84 1014.29 1014.40 1014.46 1014.16 1014.46 1014.56 1012.69 1009.84 1008.86 1008.13 1007.85 1008.04 1008.90 1009.74 1010.64 1011.39 1011.49 1010.90 1009.96 1008.48 1007.69 1005.40 1001.80 998.53 997.26 997.26 996.79 996.12 995.61 994.61 994.24 994.39 994.94 995.36 995.96 996.71 997.58 998.17
1014.68 1014.44 1014.49 1014.62 1014.64 1014.94 1014.07 1012.75 1013.64 1014.03 1014.34 1014.07 1012.59 1010.11 1009.07 1008.26 1007.63 1007.72 1008.73 1009.62 1010.70 1010.92 1010.67 1009.67 1008.02 1007.25 1006.90 1004.39 1001.34 999.73 998.56 997.45 996.50 995.89 995.54 994.74 994.96 995.23 995.67 996.21 996.70 997.35 998.10 998.74
1013.99 1013.80 1013.99 1014.15 1013.94 1013.26 1012.82 1012.94 1013.12 1013.26 1013.46 1013.05 1012.06 1010.65 1008.88 1007.95 1007.71 1007.71 1008.78 1009.10 1009.84 1009.78 1009.28 1007.81 1006.91 1005.52 1004.42 1002.74 1001.07 1000.24 999.38 997.28 995.94 995.57 995.36 995.72 995.88 996.15 996.55 996.60 997.13 997.69 998.70 999.56
1013.27 1013.36 1013.55 1012.89 1012.44 1012.66 1013.04 1013.14 1013.17 1013.15 1013.12 1013.09 1011.73 1010.36 1009.57 1009.00 1007.33 1007.81 1008.24 1008.12 1008.00 1007.53 1006.90 1006.35 1005.70 1003.49 1002.01 1001.25 1001.18 1000.94 999.85 997.83 996.64 996.06 995.83 995.94 996.27 996.62 997.12 997.49 997.84 998.43 999.38 1000.12
1013.32 1013.00 1012.74 1012.49 1012.55 1012.60 1012.35 1012.15 1012.08 1011.78 1011.59 1011.19 1010.06 1009.70 1009.06 1007.86 1007.21 1007.21 1007.50 1007.47 1007.00 1006.66 1006.00 1005.64 1004.38 1002.91 1002.03 1001.48 1001.10 1000.49 999.26 997.88 996.96 997.01 997.10 997.20 997.22 997.41 997.95 998.73 999.25 999.88 1000.55 1001.09
1013.14 1012.90 1012.93 1012.70 1012.30 1011.83 1011.75 1011.21 1011.06 1010.78 1009.86 1009.29 1008.36 1007.77 1007.90 1006.92 1006.69 1006.92 1007.20 1006.87 1006.96 1005.94 1005.58 1005.30 1004.29 1002.70 1002.10 1001.45 1000.88 1000.51 999.87 998.61 998.04 998.09 998.09 997.97 998.32 998.98 999.34 1000.04 1000.59 1001.20 1001.77 1002.21
1012.74 1012.66 1012.52 1012.36 1012.24 1011.63 1010.94 1010.41 1009.86 1009.29 1008.77 1008.14 1007.09 1006.61 1006.14 1005.94 1006.20 1006.11 1006.08 1005.96 1005.47 1005.47 1005.21 1005.08 1004.72 1002.22 1001.27 1000.93 1000.37 1000.37 1000.32 999.82 999.56 999.62 999.77 999.82 1000.20 1000.78 1001.15 1001.76 1002.10 1002.36 1002.90 1003.18
1011.42 1011.15 1011.08 1011.09 1010.98 1010.88 1010.28 1009.52 1008.49 1007.84 1007.19 1006.54 1006.19 1005.78 1005.12 1004.86 1005.08 1004.82 1004.92 1004.74 1004.63 1004.98 1004.86 1004.92 1003.46 1002.53 1001.44 1000.87 1000.81 1000.79 1000.93 1000.61 1001.27 1001.42 1001.42 1001.72 1002.02 1002.50 1002.87 1003.03 1003.27 1003.30 1003.71 1004.14
1010.42 1010.56 1011.01 1010.90 1010.29 1009.50 1008.52 1007.68 1007.13 1006.42 1006.13 1006.03 1005.38 1004.82 1004.43 1003.90 1003.68 1003.82 1003.82 1004.39 1005.42 1006.01 1005.49 1004.68 1004.09 1003.20 1002.55 1002.65 1002.06 1001.90 1001.94 1002.09 1002.42 1002.26 1002.58 1002.81 1003.19 1003.66 1004.02 1004.19 1004.14 1004.37 1004.60 1004.64
1010.76 1010.89 1011.42 1010.90 1009.77 1008.48 1007.58 1006.65 1005.76 1005.30 1005.58 1005.17 1004.78 1003.66 1003.17 1003.80 1004.34 1004.87 1005.75 1006.07 1006.56 1006.51 1006.11 1005.93 1005.23 1004.73 1004.15 1003.54 1003.17 1003.28 1003.32 1003.36 1003.20 1003.00 1003.82 1004.12 1003.96 1004.14 1004.60 1004.88 1005.02 1005.10 1005.30 1005.52
1011.13 1011.46 1011.29 1010.61 1009.98 1009.07 1007.90 1006.74 1005.42 1004.79 1003.74 1003.40 1003.02 1003.86 1004.20 1005.03 1005.61 1006.34 1006.78 1006.72 1006.78 1006.50 1006.06 1005.82 1005.52 1004.83 1004.48 1004.02 1003.80 1003.79 1003.73 1003.83 1004.28 1004.72 1004.94 1004.64 1004.54 1004.68 1005.02 1005.31 1005.66 1005.76 1005.91 1005.93
Wind_Speed
16 15 14 14 14 16 11 6 6 3 6 8 7 11 10 6 15 20 16 8 11 14 13 13 16 20 15 16 21 27 23 14 13 21 21 24 23 22 24 16 21 11 16 14
15 14 12 11 11 11 8 7 6 1 5 7 10 11 10 12 18 17 17 17 12 8 12 9 14 12 2 5 21 24 22 13 15 18 14 12 20 25 24 22 20 22 18 16
15 14 12 11 9 8 6 6 5 4 4 3 8 7 14 12 11 16 20 19 18 17 15 11 4 10 5 7 19 7 15 20 22 18 19 16 19 19 21 21 19 19 18 18
15 14 13 11 7 7 6 4 2 5 3 2 8 7 8 11 11 10 10 14 21 18 19 18 15 11 6 6 5 11 16 21 22 23 22 19 21 22 19 24 24 23 21 25
14 15 12 10 7 3 7 5 5 0 9 8 10 5 10 7 3 7 8 9 13 14 18 16 16 16 12 8 11 13 9 11 18 21 21 20 19 18 21 26 24 24 24 20
15 14 13 11 4 6 4 1 4 6 5 7 8 7 5 6 7 6 6 6 13 8 4 13 16 15 14 7 6 8 7 10 10 16 21 21 25 31 29 25 20 20 22 16
15 14 12 9 5 10 4 3 3 4 8 7 7 6 10 14 13 13 13 14 12 6 18 18 16 18 18 15 13 9 4 7 8 13 16 27 18 23 26 25 22 22 21 19
16 14 13 11 9 7 7 3 3 3 7 8 9 12 11 13 13 17 16 12 14 11 13 10 11 12 19 24 21 17 11 9 9 12 18 13 24 4 17 20 25 25 23 21
18 16 14 13 9 7 7 6 5 2 3 8 10 9 6 9 11 11 14 3 11 10 9 11 19 18 16 17 20 23 19 15 12 11 22 29 17 13 14 16 20 19 22 23
19 18 16 15 13 9 7 5 9 4 4 5 15 9 11 10 7 9 9 4 5 7 10 12 13 17 20 20 22 18 21 18 21 17 17 13 13 16 13 20 8 17 19 21
18 17 16 14 16 13 7 5 8 8 6 11 14 17 15 11 8 8 4 8 4 7 10 9 12 13 16 18 21 23 19 17 18 18 22 26 1 5 16 12 10 5 5 8
14 14 15 11 16 13 11 6 6 7 7 10 13 14 15 21 19 13 9 12 4 5 5 4 7 8 8 13 17 21 20 17 14 18 16 4 23 18 10 4 4 2 4 4
10 15 10 9 12 15 11 7 3 4 6 11 16 18 17 18 20 17 14 10 10 4 5 3 5 7 8 9 15 17 19 18 18 16 20 19 14 15 10 9 8 4 4 9
10 13 8 7 6 5 9 7 6 4 4 6 10 7 14 16 13 16 17 18 8 2 3 2 4 6 9 10 8 11 14 9 18 17 14 14 13 12 9 6 7 9 12 15
10 9 7 3 3 0 6 7 7 8 6 6 11 17 20 17 18 16 17 16 17 8 2 3 4 5 6 9 13 13 15 14 12 13 15 14 17 15 12 12 13 15 21 22
12 9 7 5 5 7 5 4 6 9 7 4 5 7 11 7 10 17 19 14 10 10 5 5 5 7 3 5 8 16 12 8 13 11 12 14 5 12 14 15 16 17 19 23
12 9 8 7 5 7 5 4 3 1 4 2 4 6 1 11 11 7 10 12 4 4 4 5 5 3 3 4 12 16 4 13 14 15 11 9 16 16 17 20 19 18 20 18
13 10 8 7 6 7 7 8 15 6 2 4 4 5 4 4 4 7 6 7 6 7 4 5 8 5 5 8 14 17 19 19 17 14 15 9 13 18 19 21 22 22 18 18
14 9 3 5 5 4 2 3 6 8 4 3 3 3 2 3 6 4 6 7 5 4 7 5 5 6 8 11 13 14 17 9 7 18 14 17 19 21 22 23 22 20 17 15
6 4 4 4 1 7 6 4 3 2 2 4 4 3 4 4 5 2 3 3 4 5 7 4 5 9 15 14 12 11 15 16 16 20 23 24 22 19 19 18 17 16 15 13
1 2 2 3 2 2 3 3 4 5 5 5 5 8 4 5 4 4 5 2 3 3 4 5 3 4 6 2 7 10 9 8 15 17 18 18 19 19 18 18 17 15 14 12
1 1 1 2 2 2 3 3 2 4 3 3 3 3 6 4 3 3 5 3 3 4 3 2 4 5 9 5 8 9 7 11 19 19 19 21 21 18 18 16 15 13 13 11
2 2 2 0 1 3 3 3 3 3 3 4 4 5 5 5 3 3 2 4 3 4 3 2 3 11 4 5 10 12 13 16 18 21 20 20 19 17 16 13 12 12 10 9
2 4 4 5 3 2 5 5 6 4 6 6 4 4 2 0 3 5 3 4 3 2 3 2 4 10 4 9 15 15 16 16 16 15 16 16 15 14 12 11 8 9 9 7
4 4 6 5 8 11 8 6 4 5 4 6 4 4 4 4 4 1 5 5 6 6 4 3 8 12 10 11 10 13 13 14 12 14 13 13 13 11 11 9 9 9 8 7
3 4 5 8 7 10 11 13 10 8 6 3 4 4 3 8 4 7 9 4 5 3 2 5 7 10 12 10 12 13 10 11 11 13 11 10 12 13 12 10 9 9 9 8
5 4 5 8 7 8 9 10 12 9 5 5 4 7 7 5 6 5 4 4 2 4 4 3 6 8 8 7 11 12 12 13 14 12 11 12 11 11 11 11 9 9 8 8
Wind_Direction
320 319 317 323 326 329 299 294 274 70 297 244 232 241 235 329 268 245 245 267 273 268 230 238 233 218 212 206 196 203 215 210 219 206 218 224 219 216 214 227 223 252 263 250
327 323 321 321 327 337 318 300 287 234 264 258 231 235 272 257 266 249 251 231 232 240 256 247 241 219 19 247 219 202 198 224 210 229 182 212 235 218 224 226 239 226 230 233
320 321 320 320 320 328 288 287 284 172 231 318 301 312 269 262 264 261 268 265 254 248 245 241 243 222 172 228 228 97 225 216 227 214 217 193 211 224 225 238 227 234 236 238
323 319 316 319 312 313 271 237 34 3 301 153 316 274 300 277 272 268 303 241 247 248 236 241 219 245 200 179 103 198 216 222 228 232 256 215 203 209 205 223 230 231 231 233
322 321 316 311 306 242 264 294 300 198 284 279 269 217 252 269 312 287 249 292 1 292 257 247 230 238 237 218 180 192 215 222 232 226 229 245 236 231 220 217 228 238 246 253
320 318 322 308 265 208 271 276 274 271 275 266 269 267 249 290 317 259 290 6 322 275 333 339 310 309 306 323 305 179 219 219 205 224 225 231 240 230 226 233 230 234 238 241
319 319 315 316 266 214 286 286 296 286 273 269 280 292 286 279 278 280 289 302 290 338 329 299 257 253 254 252 235 247 229 221 219 226 213 223 252 225 226 241 236 232 241 240
302 302 306 301 285 252 249 236 169 244 271 284 279 266 285 286 273 259 269 283 287 312 297 263 223 207 229 234 234 226 219 256 222 225 224 233 246 195 226 220 233 232 233 230
296 289 282 284 278 258 243 247 224 209 269 254 286 269 273 298 299 280 251 294 299 279 262 240 228 214 210 219 226 225 222 222 250 212 237 234 234 236 212 232 239 228 227 230
297 287 278 270 261 247 227 252 218 216 248 247 268 254 290 305 251 274 282 349 284 237 253 243 227 226 218 221 211 209 201 211 221 227 247 251 249 244 190 223 236 221 227 221
303 296 284 267 266 246 203 253 211 219 256 264 246 249 263 249 250 272 353 289 187 242 252 256 234 239 224 224 226 210 201 199 214 222 228 232 225 181 220 233 234 264 267 273
315 310 305 280 248 245 210 251 194 216 242 277 294 275 262 260 263 273 309 291 318 338 286 340 301 272 248 223 218 232 204 211 220 209 219 309 208 233 213 272 290 254 266 230
325 334 332 324 286 222 211 236 220 215 262 270 245 246 244 237 239 244 258 241 264 237 340 339 300 282 294 233 236 233 222 234 230 236 209 217 224 238 252 270 261 252 197 143
330 343 354 345 40 158 188 213 221 228 282 275 278 275 247 245 246 226 229 247 246 53 71 0 286 291 347 282 312 292 253 245 226 244 246 202 215 229 242 224 181 149 138 136
328 330 348 321 317 210 231 236 238 233 250 298 303 300 278 243 234 222 212 217 227 218 129 252 251 284 299 282 279 263 256 244 241 236 210 214 209 201 181 158 157 152 141 134
325 306 309 321 278 258 240 259 204 220 216 265 285 344 273 282 233 219 216 210 212 224 188 213 252 250 270 276 272 263 268 295 289 282 310 229 228 167 163 149 146 147 140 129
299 300 275 261 253 242 250 355 23 211 124 259 266 239 270 259 210 184 186 198 172 177 222 216 251 262 209 263 253 269 238 312 292 262 261 207 171 162 153 143 128 120 121 124
307 286 254 261 233 249 263 238 183 174 200 220 263 274 266 228 179 149 149 166 169 194 212 230 226 187 202 247 257 253 280 288 270 225 208 181 148 141 140 135 136 130 123 119
303 294 234 213 223 227 172 56 186 207 246 261 232 259 300 224 200 140 174 172 177 202 210 230 222 196 218 240 266 299 292 269 234 183 142 138 135 135 137 134 128 120 118 119
293 194 189 222 180 74 126 159 171 186 165 229 249 222 258 301 170 140 166 173 224 210 205 189 235 249 253 241 283 276 268 248 193 166 153 140 130 128 126 122 114 114 117 122
216 205 238 18 358 211 209 229 221 191 220 198 220 198 214 218 202 188 202 195 219 228 183 222 245 242 245 234 245 242 224 201 133 126 126 127 118 112 107 101 98 96 95 92
141 286 276 261 271 250 262 219 219 228 260 254 232 205 207 234 145 175 183 228 222 233 163 221 278 260 277 207 177 175 176 138 119 110 104 99 96 98 97 99 96 92 90 87
190 210 211 323 90 302 278 310 250 250 229 243 245 231 224 172 179 224 169 221 221 170 152 182 291 284 81 178 135 101 90 87 93 91 88 85 85 86 90 95 91 92 88 81
297 321 348 352 5 293 251 253 260 250 216 246 312 303 295 309 187 207 187 222 162 69 52 45 261 20 30 62 89 89 78 67 75 88 84 84 84 83 80 80 85 94 93 90
1 359 5 351 315 302 298 303 275 266 309 317 272 230 229 209 233 204 2 57 49 30 1 353 12 2 59 104 61 78 81 81 78 81 84 85 88 90 90 82 85 88 87 82
18 36 336 319 309 331 337 341 340 3 332 259 229 280 8 36 22 19 29 44 19 319 341 29 2 21 22 60 95 92 86 82 76 71 84 98 92 89 90 88 86 83 82 84
23 354 300 328 298 315 315 340 344 334 334 8 18 34 20 39 22 34 16 347 339 342 350 15 21 22 23 58 83 90 88 93 92 93 93 92 95 97 99 94 96 99 90 89